Regional Weather Roundup
Issued by NWS Albany, NY

Home | Current Version | Previous Version | Text Only | Print | Product List | Glossary On
Versions: 1 2 3 4 5 6 7 8 9 10 11 12 13 14 15 16 17 18 19 20 21 22 23 24 25 26 27
000
ASUS41 KALY 291010
RWRALY

NEW YORK STATE HOURLY WEATHER ROUNDUP
NATIONAL WEATHER SERVICE ALBANY NY
600 AM EDT SUN MAY 29 2016

NOTE: "FAIR" INDICATES FEW OR NO CLOUDS BELOW 12,000 FEET WITH NO
SIGNIFICANT WEATHER AND/OR NO OBSTRUCTIONS TO VISIBILITY.

NYZ032-033-038>043-046>054-057>066-NYZ062>081-082-084-291100-
EAST


CITY           SKY/WX    TMP DP  RH WIND       PRES   REMARKS
ALBANY         MOCLDY    69  65  86 CALM      30.10R
GLENS FALLS    CLEAR     63  60  90 CALM      30.11R FOG
POUGHKEEPSIE   CLEAR     69  66  90 CALM      30.10S FOG
NEWBURGH       PTCLDY    68  66  94 W6        30.12S
MONTGOMERY     CLOUDY    66  65  96 S3        30.12R FOG
WHITE PLAINS   PTCLDY    70  60  70 CALM      30.13R
ISLIP          MOCLDY    65  54  67 SW7       30.14R
NEW YORK CITY  PTCLDY    74  59  59 S6        30.12R
CENTRAL PARK   CLEAR     72  54  53 VRB5      30.16R
$$

NYZ005>009-017-018-044>046-055-056-291100-
CENTRAL


CITY           SKY/WX    TMP DP  RH WIND       PRES   REMARKS
FULTON         PTCLDY    73  67  81 SE3       30.07R
SYRACUSE       CLOUDY    69  65  86 CALM      30.06S
ROME           CLOUDY    67  62  84 SE3       30.10R
ELMIRA         PTCLDY    64  62  93 CALM      30.11S
BINGHAMTON     PTCLDY    68  65  90 S5        30.15R
MONTICELLO     CLEAR     63  63 100 CALM      30.18R
$$

NYZ026>034-041>043-087-291100-
NORTH


CITY           SKY/WX    TMP DP  RH WIND       PRES   REMARKS
WATERTOWN      CLOUDY    66  63  90 E3        30.05S
FORT DRUM      NOT AVBL
MASSENA        MOCLDY    63  55  75 NE7       30.09R
SARANAC LAKE   FOG       51  50  96 CALM      30.13S VSB<1/4
PLATTSBURGH    CLEAR     61  58  90 CALM      30.09R
$$

NYZ001>004-010>016-019>021-085-291100-
WEST


CITY           SKY/WX    TMP DP  RH WIND       PRES   REMARKS
NIAGARA FALLS  CLEAR     70  64  81 SW6       30.06S
BUFFALO        PTCLDY    70  64  81 SW8       30.07S
DUNKIRK        PTCLDY    69  63  81 SW6       30.08S
JAMESTOWN      CLEAR     64  63  94 SW7       30.13S
WELLSVILLE     PTCLDY    65  63  93 CALM      30.17R
ROCHESTER      MOCLDY    70  65  84 SW5       30.07S
PENN YAN       MOCLDY    68  64  87 SW9       30.10R
$$

             KEY
       WCI = WIND CHILL INDEX
       VSB = VISIBILITY
       HX  = HEAT INDEX
$$




USA.gov is the U.S. government's official web portal to all federal, state and local government web resources and services.